Printer-friendly version
Follow the MPC on Twitter Follow the MPC on Facebook The MPC blog
Minor Planet Center

MPEC 2006-P02 : 2006 OF15

The following Minor Planet Electronic Circular may be linked-to from your own Web pages, but must not otherwise be redistributed electronically.

A form allowing access to any MPEC is at the bottom of this page.


Read MPEC 2006-P01 Read MPEC 2006-P03


M.P.E.C. 2006-P02                                Issued 2006 Aug. 1, 13:00 UT

     The Minor Planet Electronic Circulars contain information on unusual
         minor planets and routine data on comets.  They are published
   on behalf of Commission 20 of the International Astronomical Union by the
          Minor Planet Center, Smithsonian Astrophysical Observatory,
                          Cambridge, MA 02138, U.S.A.

                  Supported in part by the Brinson Foundation
                  Supported in part by the TABASGO Foundation
             Prepared using the Tamkin Foundation Computer Network

                              MPC@CFA.HARVARD.EDU
          URL http://cfa-www.harvard.edu/iau/mpc.html  ISSN 1523-6714

                                   2006 OF15

Observations:
     K06O15F* C2006 07 30.74958 01 00 29.26 -19 56 58.5          18.9 V EP002E12
     K06O15F  C2006 07 30.76321 01 00 31.96 -19 57 23.2          19.2 V EP002E12
     K06O15F  C2006 07 30.77632 01 00 34.77 -19 57 47.3          19.3 V EP002E12
     K06O15F  C2006 07 30.78951 01 00 37.44 -19 58 10.4          19.2 V EP002E12
     K06O15F  C2006 07 30.82406 01 00 44.63 -19 59 14.1          18.7 V EP002E12
     K06O15F  C2006 07 30.82460 01 00 44.71 -19 59 13.9          19.0 V EP002E12
     K06O15F  C2006 07 30.82514 01 00 44.82 -19 59 15.6          19.2 V EP002E12
     K06O15F  C2006 07 30.82569 01 00 44.90 -19 59 15.7          19.2 V EP002E12
     K06O15F  C2006 07 30.82663 01 00 45.08 -19 59 17.2          19.1 V EP002E12
     K06O15F  C2006 07 30.82716 01 00 45.16 -19 59 17.7                 EP002E12
     K06O15F  C2006 07 30.82773 01 00 45.30 -19 59 19.5          19.1 V EP002E12
     K06O15F  C2006 07 30.82828 01 00 45.48 -19 59 19.9          19.4 V EP002E12
     K06O15F  C2006 07 31.66544 01 03 43.45 -20 24 43.4          18.9 V EP002E12
     K06O15F  C2006 07 31.66821 01 03 43.99 -20 24 48.8          19.3 V EP002E12
     K06O15F  C2006 08 01.30085 01 05 57.96 -20 44 15.7          18.7 R EP002I77
     K06O15F  C2006 08 01.30588 01 05 58.91 -20 44 25.4          19.1 R EP002I77
     K06O15F  C2006 08 01.30996 01 05 59.63 -20 44 33.1          19.3 R EP002I77
     K06O15F  C2006 08 01.32972 01 06 04.45 -20 45 19.7          19.7 R EP002850
     K06O15F  C2006 08 01.33783 01 06 06.12 -20 45 35.2          18.9 R EP002850
     K06O15F  C2006 08 01.34616 01 06 07.85 -20 45 50.7          19.2 R EP002850
     K06O15F  C2006 08 01.35424 01 06 09.57 -20 46 06.0          18.9 R EP002850
     K06O15F  C2006 08 01.36224 01 06 11.15 -20 46 21.8          19.3 R EP002850
     K06O15F  C2006 08 01.36586 01 06 12.10 -20 46 28.2          19.0 R EP002734
     K06O15F  C2006 08 01.36817 01 06 12.51 -20 46 32.0          19.5 R EP002734
     K06O15F  C2006 08 01.37045 01 06 12.99 -20 46 37.5          18.9 R EP002850
     K06O15F  C2006 08 01.37278 01 06 13.49 -20 46 41.6          20.0 R EP002734

Observer details:
734 Farpoint Observatory.  Observer D. Tibbets.  0.7-m reflector + CCD.
850 Cordell-Lorenz Observatory, Sewanee.  Observers D. T. Durig,
    J. C. Cockhren.  0.30-m f/5 Schmidt-Cassegrain + 1530x1020 CCD.
E12 Siding Spring Survey.  Observer G. J. Garradd.  Measurers E. C. Beshore,
    E. J. Christensen, G. J. Garradd, A. R. Gibbs, A. D. Grauer, R. E. Hill,
    R. A. Kowalski, S. M. Larson, R. H. McNaught.  0.5-m Uppsala Schmidt + CCD.
I77 CEAMIG-REA Observatory, Belo Horizonte.  Observers C. Jacques, E. Pimentel.
    Measurer C. Jacques.  0.30-m f/3.0 Schmidt-Cassegrain + CCD.

Orbital elements:
2006 OF15                                                Earth MOID = 0.4323 AU
Epoch 2006 Sept. 22.0 TT = JDT 2454000.5                MPC
M 358.99906              (2000.0)            P               Q
n   0.33542577     Peri.  247.21169     +0.91922689     -0.20561728
a   2.0515011      Node   123.06630     +0.27197249     +0.94824700
e   0.3672197      Incl.   23.61974     -0.28469789     +0.24196935
P   2.94           H   18.2           G   0.15           U   9
Residuals in seconds of arc
060730 E12  0.2-  0.1-    060730 E12  0.7-  0.8+    060801 850  0.0   0.5+
060730 E12 (1.6-  0.1-)   060730 E12  0.3-  0.1+    060801 850  0.1-  0.5+
060730 E12  0.1+  0.5-    060730 E12  0.6+  0.7+    060801 850  0.5+  0.2+
060730 E12  0.5-  0.3+    060731 E12  0.4+  0.4+    060801 850  0.6-  0.8-
060730 E12  0.8+  1.1-    060731 E12  0.1-  0.1+    060801 734  0.5+  0.2-
060730 E12  0.4+  0.0     060801 I77 (1.7+  0.0 )   060801 734  0.5-  0.3+
060730 E12  0.4+  0.7-    060801 I77  0.4+  0.4-    060801 850 (1.3+  1.2-)
060730 E12  0.1-  0.2+    060801 I77 (1.3-  0.6-)   060801 734  0.2-  0.8-
060730 E12  0.3-  0.4+    060801 850  0.2+  0.9+

Ephemeris:
2006 OF15                a,e,i = 2.05, 0.37, 24                  q = 1.2981
Date    TT    R. A. (2000) Decl.     Delta      r     Elong.  Phase     V
2006 07 24    00 37.23   -16 44.4    0.623    1.415   117.5    39.5    19.5
2006 08 03    01 12.01   -21 37.0    0.569    1.383   119.0    39.9    19.3
2006 08 13    01 48.37   -27 02.2    0.534    1.355   119.0    40.8    19.1
2006 08 23    02 24.79   -32 28.3    0.517    1.332   117.7    42.2    19.0
2006 09 02    02 59.10   -37 23.3    0.513    1.315   115.6    43.8    19.0
2006 09 12    03 29.11   -41 26.6    0.520    1.304   113.4    45.1    19.1
2006 09 22    03 52.95   -44 32.6    0.532    1.298   111.7    45.9    19.1
2006 10 02    04 09.37   -46 41.1    0.547    1.300   110.8    46.1    19.2
2006 10 12    04 18.07   -47 51.7    0.561    1.307   110.9    45.5    19.3
2006 10 22    04 19.37   -48 01.1    0.573    1.321   111.9    44.3    19.3
2006 11 01    04 14.59   -46 59.2    0.585    1.341   113.9    42.6    19.3
2006 11 11    04 06.04   -44 36.8    0.598    1.366   116.5    40.5    19.4
2006 11 21    03 56.31   -40 49.2    0.614    1.396   119.3    38.1    19.4
2006 12 01    03 47.92   -35 41.2    0.638    1.430   121.8    35.9    19.5
2006 12 11    03 42.56   -29 31.6    0.673    1.467   123.4    34.1    19.6
2006 12 21    03 40.89   -22 47.5    0.722    1.507   123.4    33.0    19.8
2006 12 31    03 43.00   -15 57.7    0.787    1.550   121.8    32.6    20.0
2007 01 10    03 48.53   -09 26.8    0.869    1.594   118.7    32.8    20.3
2007 01 20    03 56.99   -03 29.8    0.967    1.640   114.4    33.1    20.6
2007 01 30    04 07.96   +01 46.4    1.079    1.686   109.5    33.4    20.9
2007 02 09    04 20.98   +06 20.6    1.203    1.733   104.2    33.5    21.2
2007 02 19    04 35.69   +10 15.0    1.338    1.781    98.8    33.3    21.5
2007 03 01    04 51.80   +13 33.2    1.481    1.828    93.3    32.8    21.7
2007 03 11    05 09.03   +16 18.8    1.630    1.875    87.8    32.0    22.0

Timothy B. Spahr             (C) Copyright 2006 MPC           M.P.E.C. 2006-P02

Read MPEC 2006-P01 Read MPEC 2006-P03


MPEC number:

Enter an MPEC number in one of the following forms:

  • 1997-B01 (the full form)
  • J97B01 (the packed version of the full form)
  • B01 (the abbreviated form)

Valid HTML 4.01!